M I D A S
Marine Information and Data Acquisition System
Tripno 640 of the Zeeleeuw from 2004-02-02 07:23:31 to 2004-02-02 13:50:01
Back to CruiseResearch ActivitiesStationsMapUnderway DataData graphs

EquipmentUnitsComments
TimeDGPSUTC
LatitudeDGPSDM.mWGS84
LongitudeDGPSDM.mWGS84
SpeedMeteo Stationm/sRelative wind speed
DirectionMeteo StationdegRelative wind direction
TemperatureMeteo Stationdeg CelciusAir temperature
PressureMeteo StationPaAtmospheric pressure
HumidityMeteo Station%Relative humidity
Missing or incorrect values are displayed as -999
Metereological data collected by the RV Zeeleeuw from 2004-02-02 07:23:31 to 2004-02-02 13:50:01
                                                                                    Next 1000 lines
Time Latitude Longitude Speed Direction Temperature Pressure Humidity
2004-02-02 07:23:39 51°13.595 2°56.109 5.6 126 10.7 101570 94
2004-02-02 07:23:43 51°13.595 2°56.109 7.3 126 10.7 101570 94
2004-02-02 07:23:48 51°13.596 2°56.108 6 227 10.7 101570 95
2004-02-02 07:23:53 51°13.596 2°56.106 5.8 140 10.7 101570 95
2004-02-02 07:23:58 51°13.597 2°56.103 6.2 141 10.7 101570 95
2004-02-02 07:24:03 51°13.598 2°56.1 5.3 135 10.7 101570 95
2004-02-02 07:24:09 51°13.6 2°56.095 6.1 112 10.8 101570 95
2004-02-02 07:24:14 51°13.601 2°56.09 4.6 133 10.8 101570 95
2004-02-02 07:24:19 51°13.602 2°56.085 3.2 113 10.8 101560 95
2004-02-02 07:24:24 51°13.604 2°56.08 6.5 122 10.8 101560 95
2004-02-02 07:24:29 51°13.606 2°56.074 6.9 116 10.8 101570 95
2004-02-02 07:24:33 51°13.607 2°56.069 4.8 102 10.8 101570 95
2004-02-02 07:24:39 51°13.61 2°56.061 4.6 118 10.8 101570 95
2004-02-02 07:24:44 51°13.612 2°56.055 5 142 10.8 101570 95
2004-02-02 07:24:49 51°13.614 2°56.048 3.4 129 10.8 101570 95
2004-02-02 07:24:53 51°13.616 2°56.042 4.2 144 10.8 101570 95
2004-02-02 07:24:59 51°13.618 2°56.033 3.9 140 10.8 101570 95
2004-02-02 07:25:04 51°13.62 2°56.026 3.8 136 10.8 101570 95
2004-02-02 07:25:09 51°13.622 2°56.018 3.6 139 10.8 101570 95
2004-02-02 07:25:13 51°13.624 2°56.012 4 133 10.8 101570 95
2004-02-02 07:25:19 51°13.626 2°56.002 4.5 141 10.8 101570 95
2004-02-02 07:25:24 51°13.628 2°55.995 4.6 144 10.8 101570 95
2004-02-02 07:25:29 51°13.631 2°55.987 3.7 154 10.8 101570 95
2004-02-02 07:25:34 51°13.633 2°55.979 4.3 147 10.8 101570 95
2004-02-02 07:25:39 51°13.635 2°55.971 3.1 131 10.8 101570 95
2004-02-02 07:25:44 51°13.637 2°55.962 2.4 193 10.8 101570 95
2004-02-02 07:25:49 51°13.64 2°55.954 2.3 130 10.8 101570 95
2004-02-02 07:25:53 51°13.642 2°55.948 1.4 168 10.8 101570 95
2004-02-02 07:25:59 51°13.645 2°55.937 1.2 176 10.8 101570 95
2004-02-02 07:26:04 51°13.647 2°55.929 1.5 160 10.8 101570 95
2004-02-02 07:26:09 51°13.649 2°55.919 1.2 139 10.8 101570 95
2004-02-02 07:26:13 51°13.651 2°55.912 1.5 157 10.8 101570 95
2004-02-02 07:26:19 51°13.654 2°55.901 1.5 171 10.8 101570 95
2004-02-02 07:26:25 51°13.657 2°55.889 1.5 45 10.8 101570 95
2004-02-02 07:26:29 51°13.659 2°55.882 2.8 179 10.8 101570 95
2004-02-02 07:26:33 51°13.661 2°55.874 6 150 10.8 101570 95
2004-02-02 07:26:39 51°13.664 2°55.862 6.1 155 10.8 101570 95
2004-02-02 07:26:44 51°13.666 2°55.852 6.4 140 10.8 101570 95
2004-02-02 07:26:49 51°13.668 2°55.842 4.8 139 10.8 101570 95
2004-02-02 07:26:53 51°13.67 2°55.835 4.8 146 10.8 101570 95
2004-02-02 07:26:59 51°13.672 2°55.823 5.9 159 10.8 101570 95
2004-02-02 07:27:04 51°13.674 2°55.813 5.4 144 10.8 101570 95
2004-02-02 07:27:09 51°13.676 2°55.803 5.5 136 10.8 101560 95
2004-02-02 07:27:15 51°13.678 2°55.792 5.3 137 10.8 101560 95
2004-02-02 07:27:19 51°13.679 2°55.785 5.3 144 10.8 101570 95
2004-02-02 07:27:24 51°13.68 2°55.778 5.4 228 10.8 101570 95
2004-02-02 07:27:28 51°13.681 2°55.773 4.1 157 10.8 101570 95
2004-02-02 07:27:33 51°13.682 2°55.77 3.4 126 10.8 101570 95
2004-02-02 07:27:39 51°13.682 2°55.767 3.6 68 10.8 101570 95
2004-02-02 07:27:43 51°13.683 2°55.767 3.4 156 10.8 101570 95
2004-02-02 07:27:49 51°13.683 2°55.768 3.2 174 10.8 101560 95
2004-02-02 07:27:53 51°13.685 2°55.77 2.1 124 10.8 101560 95
2004-02-02 07:27:59 51°13.687 2°55.773 3 145 10.8 101570 95
2004-02-02 07:28:03 51°13.689 2°55.776 2.3 197 10.8 101570 95
2004-02-02 07:28:09 51°13.694 2°55.78 2.3 189 10.8 101580 95
2004-02-02 07:28:13 51°13.697 2°55.782 1.4 213 10.8 101580 95
2004-02-02 07:28:19 51°13.704 2°55.784 1.7 269 10.8 101570 95
2004-02-02 07:28:23 51°13.709 2°55.784 2.5 242 10.8 101570 95
2004-02-02 07:28:28 51°13.716 2°55.782 2.7 273 10.8 101570 95
2004-02-02 07:28:33 51°13.723 2°55.778 3 262 10.8 101570 95
2004-02-02 07:28:37 51°13.728 2°55.774 1.5 304 10.8 101580 95
2004-02-02 07:28:44 51°13.737 2°55.763 2.2 311 10.8 101580 95
2004-02-02 07:28:48 51°13.742 2°55.757 2.8 315 10.8 101580 95
2004-02-02 07:28:53 51°13.748 2°55.749 4.1 320 10.8 101580 95
2004-02-02 07:28:59 51°13.755 2°55.739 4.4 313 10.8 101570 95
2004-02-02 07:29:03 51°13.759 2°55.732 4.1 227 10.8 101570 95
2004-02-02 07:29:08 51°13.765 2°55.723 4.5 226 10.8 101570 95
2004-02-02 07:29:13 51°13.771 2°55.714 5.7 335 10.8 101570 95
2004-02-02 07:29:19 51°13.779 2°55.702 5.3 40 10.8 101570 95
2004-02-02 07:29:23 51°13.785 2°55.694 5.6 298 10.8 101570 95
2004-02-02 07:29:28 51°13.793 2°55.684 3.7 289 10.8 101580 95
2004-02-02 07:29:33 51°13.801 2°55.675 3.5 248 10.8 101580 95
2004-02-02 07:29:37 51°13.807 2°55.667 4 298 10.8 101580 95
2004-02-02 07:29:43 51°13.815 2°55.655 3.8 312 10.8 101580 95
2004-02-02 07:29:49 51°13.825 2°55.644 6.1 314 10.8 101580 95
2004-02-02 07:29:53 51°13.831 2°55.637 5.9 300 10.8 101580 95
2004-02-02 07:29:59 51°13.841 2°55.626 5.2 332 10.8 101580 95
2004-02-02 07:30:03 51°13.848 2°55.62 3.2 354 10.8 101580 95
2004-02-02 07:30:08 51°13.857 2°55.612 3.8 320 10.8 101570 95
2004-02-02 07:30:13 51°13.867 2°55.604 2.9 320 10.8 101570 95
2004-02-02 07:30:18 51°13.877 2°55.597 3.5 331 10.8 101570 95
2004-02-02 07:30:23 51°13.887 2°55.59 4.3 290 10.8 101570 95
2004-02-02 07:30:28 51°13.897 2°55.583 4 357 10.8 101580 95
2004-02-02 07:30:33 51°13.907 2°55.575 3.1 335 10.8 101580 95
2004-02-02 07:30:39 51°13.919 2°55.566 6.1 314 10.8 101580 95
2004-02-02 07:30:43 51°13.927 2°55.56 3.1 316 10.8 101580 95
2004-02-02 07:30:48 51°13.937 2°55.553 3.4 336 10.8 101570 95
2004-02-02 07:30:53 51°13.947 2°55.546 4 328 10.8 101570 95
2004-02-02 07:30:57 51°13.956 2°55.541 5.3 318 10.8 101570 95
2004-02-02 07:31:03 51°13.968 2°55.532 4.4 301 10.8 101570 95
2004-02-02 07:31:08 51°13.979 2°55.525 2.9 317 10.8 101570 95
2004-02-02 07:31:13 51°13.989 2°55.518 2.6 326 10.8 101570 95
2004-02-02 07:31:19 51°14.001 2°55.509 2.5 302 10.8 101570 95
2004-02-02 07:31:23 51°14.009 2°55.503 1.7 336 10.8 101570 95
2004-02-02 07:31:28 51°14.019 2°55.496 3.4 348 10.8 101570 95
2004-02-02 07:31:33 51°14.03 2°55.488 4.1 330 10.8 101570 95
2004-02-02 07:31:37 51°14.038 2°55.483 2.7 318 10.8 101570 95
2004-02-02 07:31:44 51°14.053 2°55.472 4.5 335 10.8 101570 95
2004-02-02 07:31:48 51°14.062 2°55.466 5 294 10.8 101570 95
2004-02-02 07:31:53 51°14.072 2°55.458 5.2 272 10.8 101570 95
2004-02-02 07:31:59 51°14.085 2°55.449 3.8 287 10.8 101570 95
2004-02-02 07:32:03 51°14.093 2°55.443 4.7 270 10.8 101570 95
2004-02-02 07:32:09 51°14.105 2°55.434 3.9 282 10.8 101560 95
2004-02-02 07:32:13 51°14.114 2°55.428 5.8 288 10.8 101560 95
2004-02-02 07:32:17 51°14.121 2°55.423 5 298 10.8 101560 95
2004-02-02 07:32:24 51°14.135 2°55.412 5.7 286 10.8 101560 95
2004-02-02 07:32:29 51°14.144 2°55.405 5.3 294 10.8 101560 95
2004-02-02 07:32:33 51°14.151 2°55.399 4.4 288 10.8 101560 95
2004-02-02 07:32:39 51°14.162 2°55.391 3.5 277 10.8 101570 95
2004-02-02 07:32:43 51°14.169 2°55.385 3.2 312 10.8 101570 95
2004-02-02 07:32:48 51°14.177 2°55.377 3.4 341 10.8 101560 95
2004-02-02 07:32:53 51°14.185 2°55.369 2.7 336 10.8 101560 95
2004-02-02 07:32:59 51°14.194 2°55.36 4.7 331 10.8 101560 95
2004-02-02 07:33:03 51°14.2 2°55.353 5.3 344 10.8 101560 95
2004-02-02 07:33:08 51°14.208 2°55.345 5.1 345 10.8 101560 95
2004-02-02 07:33:13 51°14.216 2°55.336 4.1 316 10.8 101560 95
2004-02-02 07:33:19 51°14.224 2°55.326 5.3 311 10.8 101560 95
2004-02-02 07:33:23 51°14.229 2°55.32 6.8 312 10.8 101560 95
2004-02-02 07:33:28 51°14.236 2°55.311 5.4 323 10.8 101560 95
2004-02-02 07:33:33 51°14.242 2°55.303 5.8 300 10.8 101560 95
2004-02-02 07:33:39 51°14.25 2°55.292 5.5 303 10.8 101560 95
2004-02-02 07:33:43 51°14.254 2°55.285 6.5 302 10.8 101560 95
2004-02-02 07:33:48 51°14.26 2°55.276 7.1 308 10.8 101560 95
2004-02-02 07:33:53 51°14.265 2°55.266 5.9 296 10.8 101560 95
2004-02-02 07:33:59 51°14.273 2°55.253 8 313 10.8 101560 95
2004-02-02 07:34:03 51°14.278 2°55.244 6.9 230 10.8 101560 95
2004-02-02 07:34:09 51°14.286 2°55.23 6.6 228 10.8 101550 95
2004-02-02 07:34:13 51°14.291 2°55.221 6.5 323 10.8 101550 95
2004-02-02 07:34:17 51°14.296 2°55.212 9.6 228 10.8 101560 95
2004-02-02 07:34:23 51°14.304 2°55.197 11.2 307 10.8 101560 95
2004-02-02 07:34:28 51°14.31 2°55.184 10 306 10.8 101550 95
2004-02-02 07:34:33 51°14.317 2°55.171 8.1 304 10.8 101550 95
2004-02-02 07:34:39 51°14.324 2°55.155 8.5 306 10.8 101550 95
2004-02-02 07:34:43 51°14.328 2°55.143 8.2 309 10.8 101550 95
2004-02-02 07:34:49 51°14.335 2°55.127 8.7 306 10.8 101550 95
2004-02-02 07:34:53 51°14.34 2°55.115 6.1 311 10.8 101550 95
2004-02-02 07:34:59 51°14.347 2°55.098 7.1 311 10.8 101540 95
2004-02-02 07:35:03 51°14.352 2°55.087 5.1 308 10.8 101540 95
2004-02-02 07:35:09 51°14.36 2°55.07 7.2 303 10.8 101550 95
2004-02-02 07:35:13 51°14.365 2°55.059 7.9 300 10.8 101550 95
2004-02-02 07:35:19 51°14.373 2°55.044 7.8 297 10.8 101540 95
2004-02-02 07:35:23 51°14.379 2°55.034 9 294 10.8 101540 95
2004-02-02 07:35:29 51°14.389 2°55.019 7.9 291 10.8 101550 95
2004-02-02 07:35:33 51°14.395 2°55.01 7.3 289 10.8 101550 95
2004-02-02 07:35:39 51°14.405 2°54.996 8 294 10.8 101540 95
2004-02-02 07:35:43 51°14.412 2°54.988 7 273 10.8 101540 95
2004-02-02 07:35:48 51°14.421 2°54.98 7.3 267 10.7 101540 95
2004-02-02 07:35:53 51°14.429 2°54.972 8.3 267 10.7 101540 95
2004-02-02 07:35:59 51°14.44 2°54.963 7.1 271 10.7 101550 95
2004-02-02 07:36:03 51°14.446 2°54.959 6.4 284 10.7 101550 95
2004-02-02 07:36:08 51°14.455 2°54.953 7.1 279 10.7 101550 95
2004-02-02 07:36:13 51°14.464 2°54.948 9.9 266 10.7 101550 95
2004-02-02 07:36:17 51°14.471 2°54.944 9.1 273 10.7 101550 95
2004-02-02 07:36:24 51°14.484 2°54.938 8.8 265 10.7 101550 95
2004-02-02 07:36:29 51°14.493 2°54.933 7.7 263 10.7 101550 95
2004-02-02 07:36:33 51°14.501 2°54.93 8.3 262 10.7 101550 95
2004-02-02 07:36:39 51°14.512 2°54.926 6.6 257 10.7 101550 95
2004-02-02 07:36:43 51°14.52 2°54.923 4.8 258 10.7 101550 95
2004-02-02 07:36:48 51°14.529 2°54.919 5.2 258 10.7 101550 95
2004-02-02 07:36:53 51°14.539 2°54.916 6 260 10.7 101550 95
2004-02-02 07:36:59 51°14.551 2°54.912 4.1 257 10.7 101560 95
2004-02-02 07:37:03 51°14.559 2°54.91 8.8 267 10.7 101560 95
2004-02-02 07:37:09 51°14.571 2°54.906 4.6 256 10.7 101560 95
2004-02-02 07:37:13 51°14.579 2°54.903 5 258 10.7 101560 95
2004-02-02 07:37:19 51°14.59 2°54.899 7.6 266 10.6 101550 95
2004-02-02 07:37:23 51°14.598 2°54.896 7.2 266 10.6 101550 95
2004-02-02 07:37:29 51°14.61 2°54.89 9.1 269 10.6 101550 95
2004-02-02 07:37:33 51°14.617 2°54.887 8.3 278 10.6 101550 95
2004-02-02 07:37:37 51°14.624 2°54.882 9.5 272 10.6 101560 95
2004-02-02 07:37:43 51°14.635 2°54.875 8.2 279 10.6 101560 95
2004-02-02 07:37:48 51°14.643 2°54.868 8.9 279 10.6 101560 95
2004-02-02 07:37:53 51°14.652 2°54.861 8.4 277 10.6 101560 95
2004-02-02 07:37:59 51°14.662 2°54.853 9.2 280 10.6 101550 95
2004-02-02 07:38:03 51°14.668 2°54.847 8.3 281 10.6 101550 95
2004-02-02 07:38:08 51°14.676 2°54.84 7.6 277 10.6 101540 95
2004-02-02 07:38:13 51°14.684 2°54.832 8.1 281 10.6 101540 95
2004-02-02 07:38:19 51°14.694 2°54.822 9 284 10.6 101550 95
2004-02-02 07:38:23 51°14.701 2°54.816 8.5 288 10.6 101550 95
2004-02-02 07:38:28 51°14.709 2°54.806 7.7 295 10.6 101540 95
2004-02-02 07:38:33 51°14.719 2°54.797 7.9 285 10.6 101540 95
2004-02-02 07:38:39 51°14.732 2°54.785 7.6 285 10.6 101550 95
2004-02-02 07:38:43 51°14.741 2°54.777 8.4 291 10.6 101550 95
2004-02-02 07:38:48 51°14.752 2°54.767 10 284 10.5 101550 95
2004-02-02 07:38:53 51°14.765 2°54.756 8.8 291 10.5 101550 95
2004-02-02 07:38:59 51°14.78 2°54.742 8.5 291 10.5 101540 95
2004-02-02 07:39:03 51°14.791 2°54.733 7.7 292 10.5 101540 95
2004-02-02 07:39:08 51°14.804 2°54.72 8.3 306 10.5 101540 95
2004-02-02 07:39:13 51°14.818 2°54.707 8.8 306 10.5 101540 95
2004-02-02 07:39:17 51°14.83 2°54.696 9.3 301 10.5 101540 95
2004-02-02 07:39:23 51°14.847 2°54.678 8.6 295 10.5 101540 95
2004-02-02 07:39:28 51°14.863 2°54.664 9.7 296 10.5 101530 95
2004-02-02 07:39:33 51°14.878 2°54.648 9.4 299 10.5 101530 95
2004-02-02 07:39:38 51°14.894 2°54.633 11.3 299 10.5 101520 95
2004-02-02 07:39:43 51°14.91 2°54.617 10.6 296 10.5 101520 95
2004-02-02 07:39:49 51°14.929 2°54.598 11.4 297 10.5 101530 95
2004-02-02 07:39:53 51°14.941 2°54.585 10.9 297 10.5 101530 95
2004-02-02 07:39:59 51°14.96 2°54.567 9.3 298 10.4 101530 95
2004-02-02 07:40:03 51°14.973 2°54.554 10.6 296 10.4 101530 95
2004-02-02 07:40:08 51°14.989 2°54.539 10.2 297 10.5 101530 95
2004-02-02 07:40:13 51°15.005 2°54.523 10.6 292 10.5 101530 95
2004-02-02 07:40:18 51°15.022 2°54.507 10.3 289 10.4 101530 95
2004-02-02 07:40:24 51°15.042 2°54.488 10.2 295 10.4 101530 95
2004-02-02 07:40:28 51°15.054 2°54.475 9.5 306 10.4 101530 95
2004-02-02 07:40:33 51°15.071 2°54.459 9.8 298 10.4 101530 95
2004-02-02 07:40:39 51°15.09 2°54.439 12 293 10.4 101530 95
2004-02-02 07:40:43 51°15.102 2°54.426 10.3 305 10.4 101530 95
2004-02-02 07:40:48 51°15.118 2°54.41 9.5 306 10.4 101540 95
2004-02-02 07:40:53 51°15.134 2°54.393 9.1 302 10.4 101540 95
2004-02-02 07:40:59 51°15.154 2°54.374 9.8 309 10.4 101520 95
2004-02-02 07:41:03 51°15.167 2°54.36 10.8 308 10.4 101520 95
2004-02-02 07:41:08 51°15.183 2°54.344 9.6 301 10.4 101530 95
2004-02-02 07:41:13 51°15.2 2°54.329 12 302 10.4 101530 95
2004-02-02 07:41:17 51°15.213 2°54.316 10.2 302 10.4 101530 95
2004-02-02 07:41:24 51°15.236 2°54.294 10.8 307 10.4 101530 95
2004-02-02 07:41:28 51°15.25 2°54.282 10.2 303 10.4 101520 95
2004-02-02 07:41:33 51°15.266 2°54.265 10.4 302 10.4 101520 95
2004-02-02 07:41:39 51°15.286 2°54.246 10.1 307 10.4 101530 95
2004-02-02 07:41:43 51°15.299 2°54.233 12.6 309 10.4 101530 95
2004-02-02 07:41:48 51°15.315 2°54.217 11.5 300 10.3 101520 95
2004-02-02 07:41:53 51°15.331 2°54.202 10.2 304 10.3 101520 95
2004-02-02 07:41:57 51°15.344 2°54.188 11.5 308 10.3 101530 95
2004-02-02 07:42:04 51°15.367 2°54.166 10.4 310 10.3 101530 95
2004-02-02 07:42:08 51°15.381 2°54.153 10.6 306 10.3 101530 95
2004-02-02 07:42:13 51°15.397 2°54.137 10.9 304 10.3 101530 95
2004-02-02 07:42:19 51°15.417 2°54.118 10.6 303 10.3 101520 95
2004-02-02 07:42:23 51°15.43 2°54.105 10.8 310 10.3 101520 95
2004-02-02 07:42:28 51°15.447 2°54.09 11.9 306 10.3 101520 95
2004-02-02 07:42:33 51°15.463 2°54.074 10.2 303 10.3 101520 95
2004-02-02 07:42:39 51°15.483 2°54.055 10.4 309 10.2 101520 95
2004-02-02 07:42:43 51°15.496 2°54.042 10.9 306 10.2 101520 95
2004-02-02 07:42:49 51°15.515 2°54.023 10.4 303 10.2 101520 95
2004-02-02 07:42:53 51°15.528 2°54.011 10 305 10.2 101520 95
2004-02-02 07:42:59 51°15.548 2°53.992 12 301 10.2 101520 95
2004-02-02 07:43:04 51°15.565 2°53.976 11.1 300 10.2 101520 95
2004-02-02 07:43:09 51°15.581 2°53.96 10.1 304 10.2 101520 95
2004-02-02 07:43:13 51°15.595 2°53.947 11.9 304 10.2 101520 95
2004-02-02 07:43:19 51°15.614 2°53.928 11.6 305 10.2 101530 95
2004-02-02 07:43:23 51°15.627 2°53.915 10.9 303 10.2 101530 95
2004-02-02 07:43:29 51°15.647 2°53.896 10 302 10.2 101530 95
2004-02-02 07:43:33 51°15.66 2°53.884 10.9 299 10.2 101530 95
2004-02-02 07:43:39 51°15.68 2°53.865 10.2 301 10.2 101530 95
2004-02-02 07:43:43 51°15.693 2°53.852 11.2 304 10.2 101530 95
2004-02-02 07:43:48 51°15.709 2°53.837 11 308 10.2 101530 95
2004-02-02 07:43:53 51°15.726 2°53.821 10.9 309 10.2 101530 95
2004-02-02 07:43:59 51°15.746 2°53.802 10.3 304 10.2 101530 95
2004-02-02 07:44:03 51°15.759 2°53.79 10.7 309 10.2 101530 95
2004-02-02 07:44:08 51°15.776 2°53.775 10.3 306 10.2 101530 95
2004-02-02 07:44:13 51°15.793 2°53.759 10.2 307 10.2 101530 95
2004-02-02 07:44:19 51°15.812 2°53.741 12 305 10.1 101540 95
2004-02-02 07:44:23 51°15.825 2°53.728 9.5 304 10.1 101540 95
2004-02-02 07:44:28 51°15.842 2°53.712 9.7 307 10.1 101530 95
2004-02-02 07:44:33 51°15.859 2°53.698 10.6 308 10.1 101530 95
2004-02-02 07:44:39 51°15.879 2°53.679 10.6 305 10.1 101530 95
2004-02-02 07:44:43 51°15.893 2°53.667 10.4 305 10.1 101530 95
2004-02-02 07:44:47 51°15.906 2°53.655 9.8 303 10.1 101540 95
2004-02-02 07:44:53 51°15.926 2°53.637 10.8 306 10.1 101540 95
2004-02-02 07:44:59 51°15.946 2°53.618 10.5 306 10 101530 95
2004-02-02 07:45:03 51°15.959 2°53.606 11.3 306 10 101530 95
2004-02-02 07:45:09 51°15.978 2°53.587 10.6 310 10 101540 95
2004-02-02 07:45:13 51°15.991 2°53.575 11.1 307 10 101540 95
2004-02-02 07:45:19 51°16.011 2°53.556 9.9 311 10 101530 95
2004-02-02 07:45:24 51°16.026 2°53.54 10.1 311 10 101530 95
2004-02-02 07:45:28 51°16.039 2°53.527 11 311 10 101530 95
2004-02-02 07:45:33 51°16.056 2°53.51 10.6 230 10 101530 95
2004-02-02 07:45:39 51°16.075 2°53.491 11.8 304 10 101540 95
2004-02-02 07:45:44 51°16.091 2°53.476 11.4 306 10 101540 95
2004-02-02 07:45:48 51°16.105 2°53.463 10.1 312 10 101550 95
2004-02-02 07:45:53 51°16.121 2°53.448 10 308 10 101550 95
2004-02-02 07:45:59 51°16.141 2°53.43 10.3 310 10 101530 95
2004-02-02 07:46:03 51°16.155 2°53.417 12.2 308 10 101530 95
2004-02-02 07:46:09 51°16.174 2°53.399 13.3 229 10 101530 95
2004-02-02 07:46:13 51°16.188 2°53.386 12 304 10 101530 95
2004-02-02 07:46:19 51°16.207 2°53.368 12.3 306 9.9 101540 95
2004-02-02 07:46:23 51°16.22 2°53.355 13 302 9.9 101540 95
2004-02-02 07:46:28 51°16.236 2°53.34 10.4 304 9.9 101530 95
2004-02-02 07:46:33 51°16.253 2°53.325 11.8 308 9.9 101530 95
2004-02-02 07:46:39 51°16.272 2°53.306 10.7 308 10 101520 95
2004-02-02 07:46:43 51°16.285 2°53.295 12.3 299 10 101520 95
2004-02-02 07:46:48 51°16.301 2°53.279 13.2 302 9.9 101520 95
2004-02-02 07:46:53 51°16.318 2°53.264 10.5 313 9.9 101520 95
2004-02-02 07:46:59 51°16.337 2°53.245 10.9 309 9.9 101520 95
2004-02-02 07:47:03 51°16.35 2°53.233 11.5 305 9.9 101520 95
2004-02-02 07:47:08 51°16.366 2°53.217 10.4 312 9.9 101520 95
2004-02-02 07:47:13 51°16.383 2°53.202 10.2 318 9.9 101520 95
2004-02-02 07:47:19 51°16.402 2°53.183 9.8 42 9.9 101530 95
2004-02-02 07:47:23 51°16.415 2°53.171 10.4 313 9.9 101530 95
2004-02-02 07:47:28 51°16.432 2°53.155 9.9 313 9.9 101540 95
2004-02-02 07:47:33 51°16.448 2°53.14 10.3 315 9.9 101540 95
2004-02-02 07:47:38 51°16.464 2°53.124 11 228 9.9 101540 95
2004-02-02 07:47:43 51°16.48 2°53.109 10.5 309 9.9 101540 95
2004-02-02 07:47:48 51°16.496 2°53.094 10.8 307 9.8 101540 95
2004-02-02 07:47:53 51°16.513 2°53.078 11.2 312 9.8 101540 95
2004-02-02 07:47:57 51°16.525 2°53.066 9.7 230 9.8 101540 95
2004-02-02 07:48:04 51°16.548 2°53.044 11.1 310 9.8 101540 95
2004-02-02 07:48:08 51°16.561 2°53.032 10.2 311 9.8 101540 95
2004-02-02 07:48:13 51°16.577 2°53.017 9.8 308 9.8 101540 95
2004-02-02 07:48:19 51°16.596 2°52.999 10.6 306 9.8 101530 95
2004-02-02 07:48:23 51°16.61 2°52.987 10.9 311 9.8 101530 95
2004-02-02 07:48:29 51°16.629 2°52.969 11.7 310 9.8 101540 95
2004-02-02 07:48:33 51°16.641 2°52.957 10.9 307 9.8 101540 95
2004-02-02 07:48:37 51°16.654 2°52.944 10.9 314 9.8 101530 95
2004-02-02 07:48:43 51°16.674 2°52.926 10.6 308 9.8 101530 95
2004-02-02 07:48:48 51°16.69 2°52.91 12.1 308 9.8 101530 95
2004-02-02 07:48:53 51°16.706 2°52.895 13.1 304 9.8 101530 95
2004-02-02 07:48:59 51°16.725 2°52.876 10.2 312 9.8 101530 95
2004-02-02 07:49:03 51°16.739 2°52.864 11.3 304 9.8 101530 95
2004-02-02 07:49:08 51°16.755 2°52.849 11.4 309 9.8 101540 95
2004-02-02 07:49:13 51°16.771 2°52.835 11.4 300 9.8 101540 95
2004-02-02 07:49:19 51°16.791 2°52.817 11.4 309 9.8 101520 95
2004-02-02 07:49:23 51°16.804 2°52.806 11.8 308 9.8 101520 95
2004-02-02 07:49:28 51°16.82 2°52.792 12.4 303 9.8 101520 95
2004-02-02 07:49:33 51°16.836 2°52.778 11.7 308 9.8 101520 95
2004-02-02 07:49:38 51°16.852 2°52.764 11.8 311 9.8 101530 95
2004-02-02 07:49:43 51°16.869 2°52.749 12.3 310 9.8 101530 95
2004-02-02 07:49:48 51°16.885 2°52.734 12.3 305 9.8 101530 95
2004-02-02 07:49:53 51°16.902 2°52.719 11.1 309 9.8 101530 95
2004-02-02 07:49:57 51°16.915 2°52.708 10.9 311 9.8 101530 95
2004-02-02 07:50:03 51°16.935 2°52.69 11.3 307 9.8 101530 95
2004-02-02 07:50:08 51°16.951 2°52.675 11.6 307 9.8 101520 95
2004-02-02 07:50:13 51°16.968 2°52.661 12.2 310 9.8 101520 95
2004-02-02 07:50:19 51°16.988 2°52.643 11.2 311 9.8 101530 95
2004-02-02 07:50:23 51°17.002 2°52.631 11.6 309 9.8 101530 95
2004-02-02 07:50:28 51°17.019 2°52.617 12.8 307 9.8 101530 95
2004-02-02 07:50:33 51°17.036 2°52.602 11.6 307 9.8 101530 95
2004-02-02 07:50:39 51°17.055 2°52.585 11.4 305 9.7 101530 95
2004-02-02 07:50:43 51°17.069 2°52.575 12.2 312 9.7 101530 95
2004-02-02 07:50:48 51°17.085 2°52.561 11.4 306 9.8 101520 95
2004-02-02 07:50:53 51°17.102 2°52.549 10.6 305 9.8 101520 95
2004-02-02 07:50:59 51°17.123 2°52.533 11.3 309 9.7 101540 95
2004-02-02 07:51:03 51°17.137 2°52.523 10.5 309 9.7 101540 95
2004-02-02 07:51:08 51°17.154 2°52.511 11.6 303 9.7 101520 95
2004-02-02 07:51:13 51°17.172 2°52.499 11.6 307 9.7 101520 95
2004-02-02 07:51:19 51°17.194 2°52.485 12.1 309 9.7 101530 95
2004-02-02 07:51:24 51°17.212 2°52.475 11 304 9.7 101530 95
2004-02-02 07:51:28 51°17.227 2°52.466 10.6 307 9.7 101530 95
2004-02-02 07:51:33 51°17.245 2°52.457 10 303 9.7 101530 95
2004-02-02 07:51:38 51°17.263 2°52.448 10.1 305 9.7 101530 95
2004-02-02 07:51:43 51°17.282 2°52.44 10.5 306 9.7 101530 95
2004-02-02 07:51:48 51°17.3 2°52.432 11.5 300 9.7 101530 95
2004-02-02 07:51:53 51°17.319 2°52.424 11.2 302 9.7 101530 95
2004-02-02 07:51:59 51°17.342 2°52.414 9.7 302 9.7 101540 95
2004-02-02 07:52:03 51°17.357 2°52.408 10.4 296 9.7 101540 95
2004-02-02 07:52:08 51°17.375 2°52.4 10.8 298 9.7 101540 95
2004-02-02 07:52:13 51°17.394 2°52.393 9.1 300 9.7 101540 95
2004-02-02 07:52:19 51°17.417 2°52.386 9.4 295 9.7 101520 95
2004-02-02 07:52:23 51°17.433 2°52.381 10 304 9.7 101520 95
2004-02-02 07:52:29 51°17.455 2°52.375 9.8 300 9.7 101530 95
2004-02-02 07:52:33 51°17.471 2°52.37 9.3 296 9.7 101530 95
2004-02-02 07:52:37 51°17.486 2°52.366 9.7 297 9.7 101530 95
2004-02-02 07:52:44 51°17.513 2°52.358 8.2 294 9.7 101530 95
2004-02-02 07:52:48 51°17.528 2°52.355 8.8 295 9.7 101540 95
2004-02-02 07:52:53 51°17.547 2°52.35 7.9 299 9.7 101540 95
2004-02-02 07:52:59 51°17.571 2°52.347 10.3 295 9.6 101540 95
2004-02-02 07:53:03 51°17.586 2°52.342 7.8 300 9.6 101540 95
2004-02-02 07:53:08 51°17.606 2°52.34 9 300 9.6 101540 95
2004-02-02 07:53:13 51°17.625 2°52.337 9.9 296 9.6 101540 95
2004-02-02 07:53:19 51°17.648 2°52.332 8.1 304 9.6 101550 95
2004-02-02 07:53:23 51°17.663 2°52.33 9.8 294 9.6 101550 95
2004-02-02 07:53:28 51°17.683 2°52.326 7.9 301 9.6 101540 95
2004-02-02 07:53:33 51°17.702 2°52.324 10.5 295 9.6 101540 95
2004-02-02 07:53:39 51°17.725 2°52.32 9.1 295 9.6 101540 95
2004-02-02 07:53:44 51°17.745 2°52.315 7.8 294 9.6 101540 95
2004-02-02 07:53:49 51°17.764 2°52.314 9 294 9.6 101540 95
2004-02-02 07:53:53 51°17.779 2°52.309 7.8 298 9.6 101540 95
2004-02-02 07:53:59 51°17.803 2°52.307 9.5 295 9.6 101530 95
2004-02-02 07:54:03 51°17.818 2°52.302 8.6 308 9.6 101530 95
2004-02-02 07:54:09 51°17.842 2°52.298 10 299 9.6 101540 95
2004-02-02 07:54:13 51°17.857 2°52.295 10.6 299 9.6 101540 95
2004-02-02 07:54:19 51°17.88 2°52.29 8.9 298 9.6 101540 95
2004-02-02 07:54:24 51°17.9 2°52.288 9.9 302 9.6 101540 95
2004-02-02 07:54:29 51°17.919 2°52.284 10 296 9.6 101550 95
2004-02-02 07:54:33 51°17.934 2°52.282 9.9 301 9.6 101550 95
2004-02-02 07:54:39 51°17.957 2°52.278 8.6 294 9.5 101540 95
2004-02-02 07:54:43 51°17.973 2°52.276 9.9 294 9.5 101540 95
2004-02-02 07:54:48 51°17.992 2°52.274 7.1 296 9.5 101530 95
2004-02-02 07:54:53 51°18.012 2°52.273 8.7 297 9.5 101530 95
2004-02-02 07:54:59 51°18.035 2°52.272 8.6 295 9.5 101530 95
2004-02-02 07:55:03 51°18.051 2°52.272 8 290 9.5 101530 95
2004-02-02 07:55:09 51°18.074 2°52.272 7.6 291 9.5 101540 95
2004-02-02 07:55:13 51°18.09 2°52.276 8.1 287 9.5 101540 95
2004-02-02 07:55:19 51°18.113 2°52.281 6.8 280 9.6 101530 95
2004-02-02 07:55:23 51°18.128 2°52.287 6.4 283 9.6 101530 95
2004-02-02 07:55:28 51°18.147 2°52.296 4.7 280 9.6 101540 95
2004-02-02 07:55:33 51°18.166 2°52.307 5.7 274 9.6 101540 95
2004-02-02 07:55:39 51°18.188 2°52.323 6 267 9.6 101540 95
2004-02-02 07:55:43 51°18.202 2°52.333 5 272 9.6 101540 95
2004-02-02 07:55:48 51°18.22 2°52.349 6 262 9.6 101550 95
2004-02-02 07:55:53 51°18.237 2°52.363 2.2 260 9.6 101550 95
2004-02-02 07:55:59 51°18.256 2°52.386 2.8 259 9.6 101550 95
2004-02-02 07:56:03 51°18.27 2°52.4 2.1 248 9.6 101550 95
2004-02-02 07:56:08 51°18.285 2°52.422 2.2 258 9.6 101550 95
2004-02-02 07:56:13 51°18.301 2°52.442 1.5 247 9.6 101550 95
2004-02-02 07:56:18 51°18.315 2°52.464 2.2 241 9.6 101550 95
2004-02-02 07:56:23 51°18.329 2°52.486 1.9 230 9.6 101550 95
2004-02-02 07:56:28 51°18.343 2°52.509 1.9 230 9.6 101560 95
2004-02-02 07:56:33 51°18.358 2°52.533 1.6 239 9.6 101560 95
2004-02-02 07:56:39 51°18.375 2°52.56 1.2 248 9.6 101560 95
2004-02-02 07:56:43 51°18.387 2°52.58 1.4 238 9.6 101560 95
2004-02-02 07:56:48 51°18.4 2°52.605 0.7 200 9.6 101560 95
2004-02-02 07:56:53 51°18.413 2°52.63 0.9 204 9.6 101560 95
2004-02-02 07:56:59 51°18.429 2°52.66 1.1 204 9.6 101560 95
2004-02-02 07:57:03 51°18.439 2°52.681 0.7 201 9.6 101560 95
2004-02-02 07:57:08 51°18.452 2°52.705 1.3 169 9.6 101560 95
2004-02-02 07:57:13 51°18.463 2°52.731 1 153 9.6 101560 95
2004-02-02 07:57:19 51°18.479 2°52.763 1.1 131 9.6 101560 95
2004-02-02 07:57:23 51°18.489 2°52.783 0.9 172 9.6 101560 95
2004-02-02 07:57:28 51°18.502 2°52.809 0.7 192 9.6 101550 95
2004-02-02 07:57:33 51°18.516 2°52.832 2.5 222 9.6 101550 95
2004-02-02 07:57:37 51°18.526 2°52.852 1.7 217 9.6 101560 95
2004-02-02 07:57:44 51°18.544 2°52.888 1 229 9.6 101560 95
2004-02-02 07:57:48 51°18.555 2°52.908 1.2 252 9.6 101560 95
2004-02-02 07:57:53 51°18.569 2°52.934 0.9 240 9.6 101560 95
2004-02-02 07:57:59 51°18.585 2°52.964 0.9 245 9.6 101560 95
2004-02-02 07:58:03 51°18.595 2°52.984 1 231 9.6 101560 95
2004-02-02 07:58:08 51°18.608 2°53.01 0.8 192 9.6 101550 95
2004-02-02 07:58:13 51°18.619 2°53.037 0.8 255 9.6 101550 95
2004-02-02 07:58:18 51°18.633 2°53.064 0.7 253 9.6 101550 95
2004-02-02 07:58:23 51°18.646 2°53.09 1.6 283 9.6 101550 95
2004-02-02 07:58:28 51°18.66 2°53.113 0.8 279 9.6 101560 95
2004-02-02 07:58:33 51°18.673 2°53.137 1.2 249 9.6 101560 95
2004-02-02 07:58:37 51°18.683 2°53.157 2.6 219 9.6 101560 95
2004-02-02 07:58:43 51°18.698 2°53.187 2.9 215 9.6 101560 95
2004-02-02 07:58:48 51°18.711 2°53.213 2.4 230 9.6 101550 95
2004-02-02 07:58:53 51°18.724 2°53.239 2.9 283 9.6 101550 95
2004-02-02 07:58:57 51°18.734 2°53.259 1.3 288 9.7 101560 95
2004-02-02 07:59:04 51°18.751 2°53.295 0.7 226 9.7 101560 95
2004-02-02 07:59:08 51°18.761 2°53.316 1.2 200 9.7 101560 95
2004-02-02 07:59:13 51°18.774 2°53.342 0.9 184 9.7 101560 95
2004-02-02 07:59:19 51°18.789 2°53.372 1.2 171 9.7 101550 95
2004-02-02 07:59:23 51°18.799 2°53.393 1.2 207 9.7 101550 95
2004-02-02 07:59:29 51°18.814 2°53.426 1.1 222 9.7 101560 95
2004-02-02 07:59:33 51°18.825 2°53.445 1.4 220 9.7 101560 95
2004-02-02 07:59:39 51°18.838 2°53.477 2.3 223 9.7 101560 95
2004-02-02 07:59:43 51°18.849 2°53.496 2.2 176 9.7 101560 95
2004-02-02 07:59:48 51°18.86 2°53.523 1.8 236 9.7 101560 95
2004-02-02 07:59:53 51°18.874 2°53.549 1.4 216 9.7 101560 95
2004-02-02 07:59:59 51°18.888 2°53.581 1.8 256 9.8 101560 95
2004-02-02 08:00:03 51°18.899 2°53.602 2.4 194 9.8 101560 95
2004-02-02 08:00:09 51°18.915 2°53.634 1.4 192 9.8 101560 95
2004-02-02 08:00:13 51°18.925 2°53.654 1.3 173 9.8 101560 95
2004-02-02 08:00:18 51°18.937 2°53.681 1.4 187 9.8 101560 95
2004-02-02 08:00:23 51°18.949 2°53.707 1.5 257 9.8 101560 95
2004-02-02 08:00:28 51°18.963 2°53.733 1.9 237 9.8 101550 95
2004-02-02 08:00:33 51°18.976 2°53.759 1 269 9.8 101550 95
2004-02-02 08:00:39 51°18.991 2°53.791 0.4 280 9.8 101560 95
2004-02-02 08:00:43 51°19.002 2°53.812 0.4 279 9.8 101560 95
2004-02-02 08:00:49 51°19.017 2°53.844 0.5 219 9.8 101560 95
2004-02-02 08:00:53 51°19.027 2°53.864 0.7 226 9.8 101560 95
2004-02-02 08:00:59 51°19.043 2°53.894 0.9 212 9.8 101560 95
2004-02-02 08:01:04 51°19.055 2°53.92 0.8 228 9.8 101560 95
2004-02-02 08:01:08 51°19.066 2°53.941 1.3 214 9.8 101550 95
2004-02-02 08:01:14 51°19.082 2°53.971 1.6 201 9.8 101550 95
2004-02-02 08:01:19 51°19.094 2°53.998 1 162 9.8 101560 95
2004-02-02 08:01:24 51°19.108 2°54.023 0.9 217 9.8 101560 95
2004-02-02 08:01:28 51°19.117 2°54.045 0.8 175 9.8 101560 95
2004-02-02 08:01:33 51°19.129 2°54.071 1 253 9.8 101560 95
2004-02-02 08:01:39 51°19.144 2°54.104 0.8 174 9.8 101560 95
2004-02-02 08:01:43 51°19.154 2°54.123 0.6 203 9.8 101560 95
2004-02-02 08:01:49 51°19.167 2°54.156 0.5 229 9.8 101560 95
2004-02-02 08:01:53 51°19.178 2°54.176 0.8 238 9.8 101560 95
2004-02-02 08:01:59 51°19.192 2°54.208 0.5 234 9.8 101550 95
2004-02-02 08:02:03 51°19.202 2°54.229 0.8 216 9.8 101550 95
2004-02-02 08:02:08 51°19.214 2°54.257 0.7 223 9.8 101560 95
2004-02-02 08:02:13 51°19.225 2°54.284 0.5 230 9.8 101560 95
2004-02-02 08:02:19 51°19.239 2°54.316 0.8 246 9.8 101560 95
2004-02-02 08:02:23 51°19.249 2°54.337 1.1 266 9.8 101560 95
2004-02-02 08:02:29 51°19.265 2°54.367 1.5 253 9.8 101550 95
2004-02-02 08:02:33 51°19.273 2°54.389 1.3 239 9.8 101550 95
2004-02-02 08:02:39 51°19.288 2°54.421 1 258 9.8 101560 95
2004-02-02 08:02:44 51°19.299 2°54.447 0.6 279 9.8 101560 95
2004-02-02 08:02:48 51°19.308 2°54.469 0.6 190 9.8 101550 95
2004-02-02 08:02:53 51°19.32 2°54.496 0.5 131 9.8 101550 95
2004-02-02 08:02:59 51°19.335 2°54.527 0.3 118 9.8 101550 95
2004-02-02 08:03:04 51°19.347 2°54.554 1.2 99 9.8 101550 95
2004-02-02 08:03:09 51°19.36 2°54.581 0.7 145 9.8 101560 95
2004-02-02 08:03:14 51°19.371 2°54.608 0.4 146 9.8 101560 95
2004-02-02 08:03:17 51°19.378 2°54.624 0.6 146 9.8 101560 95
2004-02-02 08:03:24 51°19.394 2°54.662 0.6 122 9.8 101560 95
2004-02-02 08:03:29 51°19.407 2°54.688 0.6 42 9.8 101560 95
2004-02-02 08:03:34 51°19.419 2°54.715 0.5 22 9.8 101560 95
2004-02-02 08:03:39 51°19.431 2°54.742 0.7 17 9.8 101550 95
2004-02-02 08:03:44 51°19.444 2°54.768 0.7 319 9.8 101550 95
2004-02-02 08:03:49 51°19.455 2°54.796 0.5 318 9.8 101550 95
2004-02-02 08:03:53 51°19.465 2°54.816 0.6 309 9.8 101550 95
2004-02-02 08:03:59 51°19.479 2°54.849 0.4 308 9.8 101550 95
2004-02-02 08:04:03 51°19.489 2°54.87 0.3 313 9.8 101550 95
2004-02-02 08:04:08 51°19.501 2°54.898 0.3 228 9.8 101550 95
2004-02-02 08:04:13 51°19.513 2°54.925 0.6 328 9.8 101550 95
2004-02-02 08:04:19 51°19.527 2°54.956 0.4 331 9.8 101550 95
2004-02-02 08:04:23 51°19.535 2°54.978 0.4 352 9.8 101550 95
2004-02-02 08:04:28 51°19.548 2°55.005 0.4 353 9.8 101560 95
2004-02-02 08:04:33 51°19.56 2°55.032 0.2 2 9.8 101560 95
2004-02-02 08:04:39 51°19.574 2°55.065 0.2 325 9.8 101560 95
2004-02-02 08:04:43 51°19.584 2°55.086 0.3 306 9.8 101560 95
2004-02-02 08:04:49 51°19.598 2°55.118 0.1 306 9.8 101560 95
2004-02-02 08:04:53 51°19.608 2°55.14 0.1 305 9.8 101560 95
2004-02-02 08:04:59 51°19.623 2°55.17 0.1 305 9.7 101560 95
2004-02-02 08:05:04 51°19.634 2°55.197 0.1 315 9.7 101560 95
2004-02-02 08:05:08 51°19.644 2°55.218 0.2 227 9.7 101560 95
2004-02-02 08:05:13 51°19.656 2°55.244 0.2 320 9.7 101560 95
2004-02-02 08:05:19 51°19.67 2°55.277 0.4 320 9.7 101560 95
2004-02-02 08:05:24 51°19.683 2°55.303 0.5 322 9.7 101560 95
2004-02-02 08:05:29 51°19.695 2°55.33 0.8 327 9.7 101560 95
2004-02-02 08:05:33 51°19.705 2°55.352 1 7 9.7 101560 95
2004-02-02 08:05:39 51°19.718 2°55.384 0.9 351 9.7 101560 95
2004-02-02 08:05:43 51°19.728 2°55.405 0.9 4 9.7 101560 95
2004-02-02 08:05:48 51°19.739 2°55.431 1 2 9.7 101560 95
2004-02-02 08:05:53 51°19.751 2°55.459 1.2 7 9.7 101560 95
2004-02-02 08:05:59 51°19.766 2°55.492 1 343 9.7 101560 95
2004-02-02 08:06:03 51°19.775 2°55.514 0.7 3 9.7 101560 95
2004-02-02 08:06:08 51°19.788 2°55.539 0.8 322 9.7 101560 95
2004-02-02 08:06:13 51°19.798 2°55.567 0.7 11 9.7 101560 95
2004-02-02 08:06:19 51°19.812 2°55.599 0.5 358 9.6 101560 95
2004-02-02 08:06:23 51°19.821 2°55.621 0.3 5 9.6 101560 95
2004-02-02 08:06:29 51°19.834 2°55.654 0.4 7 9.6 101560 95
2004-02-02 08:06:33 51°19.844 2°55.677 1.2 347 9.6 101560 95
2004-02-02 08:06:39 51°19.86 2°55.707 0.7 345 9.6 101560 95
2004-02-02 08:06:43 51°19.868 2°55.729 0.3 351 9.6 101560 95
2004-02-02 08:06:48 51°19.88 2°55.756 0.2 3 9.6 101560 95
2004-02-02 08:06:53 51°19.892 2°55.784 1 357 9.6 101560 95
2004-02-02 08:06:59 51°19.906 2°55.816 1.1 352 9.6 101550 95
2004-02-02 08:07:04 51°19.917 2°55.843 0.6 1 9.6 101550 95
2004-02-02 08:07:09 51°19.928 2°55.87 0.8 339 9.6 101560 95
2004-02-02 08:07:13 51°19.938 2°55.891 0.7 355 9.6 101560 95
2004-02-02 08:07:19 51°19.953 2°55.922 1 327 9.6 101560 95
2004-02-02 08:07:23 51°19.962 2°55.944 0.8 342 9.6 101560 95
2004-02-02 08:07:28 51°19.974 2°55.972 1.2 5 9.5 101570 95
2004-02-02 08:07:33 51°19.987 2°55.999 0.9 13 9.5 101570 95
2004-02-02 08:07:37 51°19.997 2°56.02 0.9 31 9.5 101560 95
2004-02-02 08:07:43 51°20.01 2°56.053 1 28 9.5 101560 95
2004-02-02 08:07:49 51°20.024 2°56.085 0.6 359 9.5 101560 95
2004-02-02 08:07:53 51°20.033 2°56.108 0.7 16 9.5 101560 95
2004-02-02 08:07:57 51°20.042 2°56.13 0.9 16 9.5 101560 95
2004-02-02 08:08:04 51°20.06 2°56.168 0.8 16 9.5 101560 95
2004-02-02 08:08:09 51°20.071 2°56.195 0.7 27 9.5 101560 95
2004-02-02 08:08:13 51°20.08 2°56.217 0.5 19 9.5 101560 95
2004-02-02 08:08:19 51°20.094 2°56.251 0.8 19 9.5 101560 95
2004-02-02 08:08:24 51°20.107 2°56.277 0.6 20 9.5 101560 95
2004-02-02 08:08:29 51°20.118 2°56.304 0.4 31 9.4 101550 95
2004-02-02 08:08:33 51°20.128 2°56.325 0.6 32 9.4 101550 95
2004-02-02 08:08:39 51°20.142 2°56.358 0.7 32 9.4 101560 95
2004-02-02 08:08:43 51°20.152 2°56.381 1 18 9.4 101560 95
2004-02-02 08:08:48 51°20.165 2°56.409 0.8 1 9.4 101560 95
2004-02-02 08:08:53 51°20.177 2°56.437 0.8 27 9.4 101560 95
2004-02-02 08:08:59 51°20.191 2°56.469 0.5 21 9.4 101560 95
2004-02-02 08:09:03 51°20.2 2°56.49 0.7 20 9.4 101560 95
2004-02-02 08:09:08 51°20.212 2°56.518 0.5 20 9.4 101560 95
2004-02-02 08:09:13 51°20.224 2°56.545 1.1 11 9.4 101560 95
2004-02-02 08:09:19 51°20.238 2°56.578 1.1 11 9.4 101550 95
2004-02-02 08:09:23 51°20.248 2°56.6 0.8 21 9.4 101550 95
2004-02-02 08:09:29 51°20.262 2°56.634 0.9 29 9.4 101560 95
2004-02-02 08:09:33 51°20.271 2°56.655 1.3 52 9.4 101560 95
2004-02-02 08:09:39 51°20.284 2°56.689 1.1 45 9.4 101560 95
2004-02-02 08:09:43 51°20.294 2°56.711 1 38 9.4 101560 95
2004-02-02 08:09:48 51°20.306 2°56.739 1.1 55 9.4 101560 95
2004-02-02 08:09:53 51°20.317 2°56.767 0.7 54 9.4 101560 95
2004-02-02 08:09:59 51°20.331 2°56.8 0.7 88 9.4 101550 95
2004-02-02 08:10:03 51°20.339 2°56.822 0.7 80 9.4 101550 95
2004-02-02 08:10:09 51°20.352 2°56.856 1.2 66 9.4 101550 95
2004-02-02 08:10:13 51°20.362 2°56.878 1.5 55 9.4 101550 95
2004-02-02 08:10:19 51°20.375 2°56.911 1 51 9.4 101550 95
2004-02-02 08:10:23 51°20.384 2°56.934 0.9 74 9.4 101550 95
2004-02-02 08:10:29 51°20.398 2°56.967 1.2 45 9.4 101550 95
2004-02-02 08:10:33 51°20.407 2°56.989 1 62 9.4 101550 95
2004-02-02 08:10:39 51°20.42 2°57.023 1.3 77 9.4 101550 95
2004-02-02 08:10:44 51°20.43 2°57.052 0.7 91 9.4 101550 95
2004-02-02 08:10:48 51°20.439 2°57.075 0.7 103 9.4 101550 95
2004-02-02 08:10:53 51°20.449 2°57.104 1.1 97 9.4 101550 95
2004-02-02 08:10:59 51°20.462 2°57.138 1.9 85 9.4 101550 95
2004-02-02 08:11:03 51°20.47 2°57.162 1.4 94 9.4 101550 95
2004-02-02 08:11:09 51°20.481 2°57.197 1.6 108 9.4 101550 95
2004-02-02 08:11:13 51°20.49 2°57.22 1.8 109 9.4 101550 95
2004-02-02 08:11:19 51°20.5 2°57.256 1.6 103 9.4 101550 95
2004-02-02 08:11:23 51°20.508 2°57.279 1.6 105 9.4 101550 95
2004-02-02 08:11:28 51°20.517 2°57.309 1.4 95 9.4 101550 95
2004-02-02 08:11:33 51°20.526 2°57.339 1.6 95 9.4 101550 95
2004-02-02 08:11:39 51°20.537 2°57.375 1.9 96 9.4 101550 95
2004-02-02 08:11:43 51°20.544 2°57.399 1.9 97 9.4 101550 95
2004-02-02 08:11:48 51°20.553 2°57.428 1.6 99 9.4 101550 95
2004-02-02 08:11:53 51°20.562 2°57.457 1.5 102 9.4 101550 95
2004-02-02 08:11:59 51°20.573 2°57.492 2.2 97 9.4 101540 95
2004-02-02 08:12:03 51°20.58 2°57.516 1.9 97 9.4 101540 95
2004-02-02 08:12:08 51°20.59 2°57.545 2.1 96 9.4 101550 95
2004-02-02 08:12:13 51°20.598 2°57.575 1.5 80 9.4 101550 95
2004-02-02 08:12:19 51°20.61 2°57.611 1.3 63 9.4 101540 95
2004-02-02 08:12:24 51°20.62 2°57.64 1.5 100 9.4 101540 95
2004-02-02 08:12:29 51°20.629 2°57.669 1.3 94 9.4 101550 95
2004-02-02 08:12:33 51°20.638 2°57.692 1.6 111 9.4 101550 95
2004-02-02 08:12:39 51°20.649 2°57.727 1.4 109 9.4 101540 95
2004-02-02 08:12:44 51°20.658 2°57.756 1.4 112 9.4 101540 95
2004-02-02 08:12:49 51°20.668 2°57.786 1.4 83 9.4 101550 95
2004-02-02 08:12:53 51°20.675 2°57.81 1.3 87 9.4 101550 95
2004-02-02 08:12:59 51°20.687 2°57.845 3 99 9.3 101550 95
2004-02-02 08:13:03 51°20.693 2°57.868 2.3 135 9.3 101550 95
2004-02-02 08:13:08 51°20.703 2°57.897 1.9 80 9.3 101550 95
2004-02-02 08:13:13 51°20.713 2°57.927 2.4 88 9.3 101550 95
2004-02-02 08:13:19 51°20.725 2°57.963 2 82 9.3 101540 95
2004-02-02 08:13:24 51°20.734 2°57.992 1.4 98 9.3 101540 95
2004-02-02 08:13:29 51°20.744 2°58.022 1.6 99 9.3 101550 95
2004-02-02 08:13:33 51°20.752 2°58.046 1 113 9.3 101550 95
2004-02-02 08:13:39 51°20.763 2°58.081 1.6 104 9.3 101550 95
2004-02-02 08:13:44 51°20.773 2°58.109 1.1 54 9.3 101550 95
2004-02-02 08:13:48 51°20.783 2°58.131 0.8 36 9.3 101550 95
2004-02-02 08:13:53 51°20.796 2°58.157 0.8 9 9.3 101550 95
2004-02-02 08:13:59 51°20.814 2°58.185 0.8 320 9.4 101550 95
2004-02-02 08:14:04 51°20.829 2°58.205 1.3 321 9.4 101550 95
2004-02-02 08:14:09 51°20.845 2°58.226 1.9 301 9.3 101550 95
2004-02-02 08:14:13 51°20.859 2°58.24 2.3 280 9.3 101550 95
2004-02-02 08:14:19 51°20.879 2°58.26 2.8 269 9.3 101550 95
2004-02-02 08:14:23 51°20.892 2°58.275 2.9 287 9.3 101550 95
2004-02-02 08:14:29 51°20.913 2°58.293 2.8 291 9.3 101550 95
2004-02-02 08:14:34 51°20.931 2°58.311 4.6 271 9.3 101550 95
2004-02-02 08:14:39 51°20.949 2°58.324 6.6 273 9.3 101540 95
2004-02-02 08:14:44 51°20.967 2°58.34 3.6 256 9.3 101540 95
2004-02-02 08:14:48 51°20.982 2°58.352 4.2 270 9.3 101550 95
2004-02-02 08:14:53 51°21 2°58.365 3.7 273 9.3 101550 95
2004-02-02 08:14:59 51°21.021 2°58.384 4.7 267 9.3 101550 95
2004-02-02 08:15:03 51°21.036 2°58.395 2.3 284 9.3 101550 95
2004-02-02 08:15:09 51°21.057 2°58.413 5.5 268 9.4 101550 95
2004-02-02 08:15:13 51°21.071 2°58.426 3 279 9.4 101550 95
2004-02-02 08:15:19 51°21.093 2°58.442 5.1 276 9.4 101550 95
2004-02-02 08:15:23 51°21.107 2°58.455 2.4 288 9.4 101550 95
2004-02-02 08:15:28 51°21.125 2°58.471 4.8 282 9.4 101550 95
2004-02-02 08:15:33 51°21.143 2°58.484 3.2 270 9.4 101550 95
2004-02-02 08:15:39 51°21.164 2°58.502 4.7 278 9.4 101550 95
2004-02-02 08:15:43 51°21.179 2°58.515 4.5 282 9.4 101550 95
2004-02-02 08:15:49 51°21.2 2°58.533 2.2 277 9.4 101540 95
2004-02-02 08:15:53 51°21.215 2°58.544 2.8 279 9.4 101540 95
2004-02-02 08:15:57 51°21.229 2°58.556 2.7 283 9.4 101550 95
2004-02-02 08:16:03 51°21.251 2°58.573 3.1 261 9.4 101550 95
2004-02-02 08:16:09 51°21.271 2°58.594 2.8 272 9.4 101540 95
2004-02-02 08:16:13 51°21.285 2°58.606 3.3 261 9.4 101540 95
2004-02-02 08:16:19 51°21.306 2°58.628 3.5 272 9.4 101550 95
2004-02-02 08:16:23 51°21.32 2°58.641 2.7 244 9.4 101550 95
2004-02-02 08:16:29 51°21.34 2°58.664 2.2 249 9.4 101550 95
2004-02-02 08:16:33 51°21.353 2°58.68 1.3 256 9.4 101550 95
2004-02-02 08:16:39 51°21.372 2°58.706 2.5 264 9.4 101540 95
2004-02-02 08:16:44 51°21.387 2°58.728 0.9 160 9.4 101540 95
2004-02-02 08:16:49 51°21.402 2°58.752 1.1 247 9.4 101550 95
2004-02-02 08:16:53 51°21.414 2°58.77 1.7 149 9.4 101550 95
2004-02-02 08:16:59 51°21.429 2°58.801 1 204 9.4 101550 95
2004-02-02 08:17:03 51°21.441 2°58.82 1.4 226 9.4 101550 95
2004-02-02 08:17:08 51°21.454 2°58.845 1.1 155 9.5 101550 95
2004-02-02 08:17:13 51°21.466 2°58.87 0.7 224 9.5 101550 95
2004-02-02 08:17:19 51°21.483 2°58.9 0.4 214 9.5 101550 95
2004-02-02 08:17:23 51°21.493 2°58.921 2 103 9.5 101550 95
2004-02-02 08:17:28 51°21.504 2°58.95 1.8 118 9.5 101540 95
2004-02-02 08:17:33 51°21.515 2°58.978 4 116 9.5 101540 95
2004-02-02 08:17:39 51°21.526 2°59.014 3 114 9.4 101540 95
2004-02-02 08:17:43 51°21.533 2°59.037 4 108 9.4 101540 95
2004-02-02 08:17:49 51°21.543 2°59.073 3.2 133 9.5 101540 95
2004-02-02 08:17:53 51°21.551 2°59.097 3.9 137 9.5 101540 95
2004-02-02 08:17:59 51°21.561 2°59.134 2.4 225 9.5 101540 95
2004-02-02 08:18:03 51°21.569 2°59.157 4.1 109 9.5 101540 95
2004-02-02 08:18:09 51°21.579 2°59.192 3.8 111 9.5 101540 95
2004-02-02 08:18:13 51°21.585 2°59.216 2.9 126 9.5 101540 95
2004-02-02 08:18:19 51°21.596 2°59.253 2.4 138 9.4 101540 95
2004-02-02 08:18:23 51°21.603 2°59.277 3 113 9.4 101540 95
2004-02-02 08:18:28 51°21.612 2°59.305 2.4 108 9.5 101540 95
2004-02-02 08:18:33 51°21.621 2°59.335 1.5 104 9.5 101540 95
2004-02-02 08:18:39 51°21.634 2°59.37 2 110 9.5 101540 95
2004-02-02 08:18:43 51°21.641 2°59.394 2.3 124 9.5 101540 95
2004-02-02 08:18:48 51°21.65 2°59.423 2.8 124 9.5 101540 95
2004-02-02 08:18:53 51°21.658 2°59.452 2.9 134 9.5 101540 95
2004-02-02 08:18:59 51°21.667 2°59.489 2.6 135 9.5 101540 95
2004-02-02 08:19:03 51°21.673 2°59.514 3.5 107 9.5 101540 95
2004-02-02 08:19:08 51°21.681 2°59.545 4.8 116 9.5 101540 95
2004-02-02 08:19:13 51°21.688 2°59.576 4.2 107 9.5 101540 95
2004-02-02 08:19:19 51°21.696 2°59.613 4.4 118 9.5 101550 95
2004-02-02 08:19:23 51°21.702 2°59.639 4.4 121 9.5 101550 95
2004-02-02 08:19:28 51°21.708 2°59.671 4 139 9.4 101540 95
2004-02-02 08:19:33 51°21.716 2°59.701 4.7 124 9.4 101540 95
2004-02-02 08:19:39 51°21.725 2°59.738 3.1 121 9.5 101540 95
2004-02-02 08:19:43 51°21.731 2°59.762 4.3 117 9.5 101540 95
2004-02-02 08:19:48 51°21.739 2°59.794 3.7 105 9.5 101540 95
2004-02-02 08:19:53 51°21.747 2°59.825 3.9 117 9.5 101540 95
2004-02-02 08:19:59 51°21.756 2°59.862 3.7 111 9.5 101540 95
2004-02-02 08:20:04 51°21.763 2°59.894 4.3 131 9.5 101540 95
2004-02-02 08:20:08 51°21.769 2°59.918 4.2 137 9.5 101540 95
2004-02-02 08:20:13 51°21.776 2°59.949 4.1 120 9.5 101540 95
2004-02-02 08:20:19 51°21.785 2°59.987 4.2 113 9.5 101540 95
2004-02-02 08:20:24 51°21.791 3°0.018 3.6 117 9.5 101540 95
2004-02-02 08:20:28 51°21.797 3°0.042 4.9 135 9.5 101540 95
2004-02-02 08:20:33 51°21.803 3°0.074 4.2 123 9.5 101540 95
2004-02-02 08:20:39 51°21.811 3°0.113 4.6 104 9.5 101540 95
2004-02-02 08:20:43 51°21.815 3°0.14 4.7 115 9.5 101540 95
2004-02-02 08:20:48 51°21.821 3°0.172 4.8 108 9.5 101540 95
2004-02-02 08:20:53 51°21.825 3°0.205 5.5 111 9.5 101540 95
2004-02-02 08:20:59 51°21.831 3°0.243 6.4 105 9.5 101540 95
2004-02-02 08:21:04 51°21.834 3°0.276 6.6 104 9.5 101540 95
2004-02-02 08:21:08 51°21.838 3°0.304 6.2 124 9.5 101540 95
2004-02-02 08:21:13 51°21.843 3°0.338 5.4 126 9.5 101540 95
2004-02-02 08:21:19 51°21.848 3°0.377 5.2 115 9.5 101530 95
2004-02-02 08:21:23 51°21.851 3°0.403 5.6 118 9.5 101530 95
2004-02-02 08:21:29 51°21.856 3°0.442 5.9 121 9.5 101530 95
2004-02-02 08:21:33 51°21.859 3°0.469 5.2 116 9.5 101530 95
2004-02-02 08:21:39 51°21.864 3°0.51 5 108 9.5 101540 95
2004-02-02 08:21:43 51°21.867 3°0.537 5.5 113 9.5 101540 95
2004-02-02 08:21:48 51°21.872 3°0.57 5.4 119 9.5 101540 95
2004-02-02 08:21:53 51°21.877 3°0.602 4.9 124 9.5 101540 95
2004-02-02 08:21:59 51°21.882 3°0.641 5 108 9.5 101540 95
2004-02-02 08:22:04 51°21.887 3°0.675 5 116 9.5 101540 95
2004-02-02 08:22:09 51°21.891 3°0.709 4.4 119 9.5 101530 95
2004-02-02 08:22:13 51°21.896 3°0.736 4.3 119 9.5 101530 95
2004-02-02 08:22:19 51°21.903 3°0.774 5.3 114 9.5 101540 95
2004-02-02 08:22:23 51°21.906 3°0.8 4.5 115 9.5 101540 95
2004-02-02 08:22:28 51°21.91 3°0.832 5.2 118 9.5 101540 95
2004-02-02 08:22:33 51°21.914 3°0.867 6.2 104 9.5 101540 95
2004-02-02 08:22:39 51°21.919 3°0.908 6.3 109 9.5 101540 95
2004-02-02 08:22:44 51°21.923 3°0.941 6.1 116 9.5 101540 95
2004-02-02 08:22:48 51°21.926 3°0.968 5.8 122 9.5 101540 95
2004-02-02 08:22:53 51°21.93 3°1.001 6.3 110 9.5 101540 95
2004-02-02 08:22:59 51°21.935 3°1.041 6.1 118 9.5 101540 95
2004-02-02 08:23:03 51°21.939 3°1.068 5.5 132 9.5 101540 95
2004-02-02 08:23:09 51°21.944 3°1.107 4.3 109 9.4 101540 95
2004-02-02 08:23:13 51°21.948 3°1.133 4.6 119 9.4 101540 95
2004-02-02 08:23:19 51°21.955 3°1.172 3.8 124 9.4 101540 95
2004-02-02 08:23:24 51°21.963 3°1.204 3.2 125 9.4 101540 95
2004-02-02 08:23:28 51°21.97 3°1.23 2.8 138 9.5 101540 95
2004-02-02 08:23:33 51°21.979 3°1.26 3.2 137 9.5 101540 95
2004-02-02 08:23:37 51°21.987 3°1.283 3.6 144 9.5 101540 95
2004-02-02 08:23:43 51°21.999 3°1.319 2 146 9.5 101540 95
2004-02-02 08:23:48 51°22.011 3°1.347 2.3 159 9.5 101540 95
2004-02-02 08:23:53 51°22.021 3°1.375 2.6 177 9.5 101540 95
2004-02-02 08:23:59 51°22.035 3°1.407 2.3 171 9.5 101550 95
2004-02-02 08:24:03 51°22.044 3°1.43 2.4 180 9.5 101550 95
2004-02-02 08:24:08 51°22.056 3°1.459 2 227 9.5 101540 95
2004-02-02 08:24:13 51°22.069 3°1.486 1.9 194 9.5 101540 95
2004-02-02 08:24:19 51°22.081 3°1.519 2.5 181 9.5 101540 95
2004-02-02 08:24:23 51°22.091 3°1.54 1.5 204 9.5 101540 95
2004-02-02 08:24:29 51°22.105 3°1.573 1.1 252 9.5 101550 95
2004-02-02 08:24:33 51°22.116 3°1.593 2.7 200 9.5 101550 95
2004-02-02 08:24:39 51°22.131 3°1.623 2.5 222 9.5 101550 95
2004-02-02 08:24:43 51°22.142 3°1.642 4 212 9.5 101550 95
2004-02-02 08:24:48 51°22.157 3°1.665 3.1 212 9.5 101550 95
2004-02-02 08:24:53 51°22.172 3°1.688 2.8 235 9.5 101550 95
2004-02-02 08:24:59 51°22.188 3°1.717 2.6 225 9.6 101550 95
2004-02-02 08:25:04 51°22.203 3°1.74 3.4 221 9.6 101550 95
2004-02-02 08:25:09 51°22.218 3°1.763 2.4 235 9.6 101550 95
2004-02-02 08:25:13 51°22.23 3°1.781 2.5 235 9.6 101550 95
2004-02-02 08:25:19 51°22.249 3°1.807 2.6 233 9.6 101550 95
2004-02-02 08:25:23 51°22.261 3°1.826 3.5 239 9.6 101550 95
2004-02-02 08:25:29 51°22.28 3°1.851 2.2 227 9.6 101540 95
2004-02-02 08:25:33 51°22.291 3°1.871 2.3 225 9.6 101540 95
2004-02-02 08:25:39 51°22.311 3°1.896 2.1 225 9.6 101540 95
2004-02-02 08:25:44 51°22.327 3°1.917 2.5 243 9.6 101540 95
2004-02-02 08:25:48 51°22.338 3°1.936 1.6 232 9.5 101500 95
2004-02-02 08:25:53 51°22.355 3°1.957 2.2 245 9.5 101500 95
2004-02-02 08:25:59 51°22.373 3°1.983 2.3 209 9.5 101490 95
2004-02-02 08:26:03 51°22.385 3°2.001 2.1 233 9.5 101490 95
2004-02-02 08:26:08 51°22.401 3°2.022 1.9 222 9.5 101500 95
2004-02-02 08:26:13 51°22.416 3°2.044 1.1 187 9.5 101500 95
2004-02-02 08:26:19 51°22.434 3°2.071 1.6 248 9.5 101490 95
2004-02-02 08:26:24 51°22.449 3°2.093 2.6 203 9.5 101490 95
2004-02-02 08:26:29 51°22.464 3°2.117 2.3 221 9.5 101500 95
2004-02-02 08:26:33 51°22.476 3°2.135 3.2 196 9.5 101500 95
2004-02-02 08:26:39 51°22.492 3°2.164 3 225 9.5 101500 95
2004-02-02 08:26:44 51°22.507 3°2.188 2.7 235 9.5 101500 95
2004-02-02 08:26:48 51°22.519 3°2.206 2.5 231 9.5 101500 95
2004-02-02 08:26:53 51°22.533 3°2.229 2.5 240 9.5 101500 95
2004-02-02 08:26:59 51°22.553 3°2.256 2.3 245 9.5 101490 95
2004-02-02 08:27:03 51°22.566 3°2.273 2.9 219 9.5 101490 95
2004-02-02 08:27:09 51°22.583 3°2.302 3.1 238 9.5 101490 95
2004-02-02 08:27:13 51°22.596 3°2.319 3.7 227 9.5 101490 95
2004-02-02 08:27:19 51°22.615 3°2.345 3.8 217 9.5 101490 95
2004-02-02 08:27:24 51°22.629 3°2.369 3.6 229 9.5 101490 95
2004-02-02 08:27:29 51°22.644 3°2.391 4.4 231 9.4 101490 95
2004-02-02 08:27:33 51°22.656 3°2.408 3.3 214 9.4 101490 95
2004-02-02 08:27:38 51°22.671 3°2.43 3.4 227 9.5 101490 95
2004-02-02 08:27:44 51°22.689 3°2.457 2.2 253 9.5 101490 95
2004-02-02 08:27:48 51°22.701 3°2.475 2.3 248 9.5 101490 95
2004-02-02 08:27:53 51°22.716 3°2.499 3 268 9.5 101490 95
2004-02-02 08:27:59 51°22.734 3°2.525 3.1 202 9.5 101500 95
2004-02-02 08:28:04 51°22.747 3°2.549 4.5 228 9.5 101500 95
2004-02-02 08:28:08 51°22.76 3°2.566 4 223 9.5 101490 95
2004-02-02 08:28:13 51°22.775 3°2.589 4.7 239 9.5 101490 95
2004-02-02 08:28:19 51°22.793 3°2.615 3.6 235 9.5 101490 95
2004-02-02 08:28:24 51°22.808 3°2.637 3.1 244 9.5 101490 95
2004-02-02 08:28:29 51°22.823 3°2.659 3.3 239 9.5 101490 95
2004-02-02 08:28:33 51°22.835 3°2.677 2.6 236 9.5 101490 95
2004-02-02 08:28:37 51°22.847 3°2.695 2.4 244 9.5 101490 95
2004-02-02 08:28:43 51°22.864 3°2.722 2.4 230 9.5 101490 95
2004-02-02 08:28:48 51°22.879 3°2.745 2.9 226 9.5 101490 95
2004-02-02 08:28:53 51°22.894 3°2.767 3.6 215 9.5 101490 95
2004-02-02 08:28:59 51°22.913 3°2.792 3.6 206 9.5 101490 95
2004-02-02 08:29:03 51°22.924 3°2.811 3 239 9.5 101490 95
2004-02-02 08:29:09 51°22.942 3°2.839 3.1 240 9.5 101490 95
2004-02-02 08:29:13 51°22.955 3°2.856 4.1 223 9.5 101490 95
2004-02-02 08:29:19 51°22.973 3°2.885 2.7 241 9.5 101490 95
2004-02-02 08:29:23 51°22.986 3°2.902 3 235 9.5 101490 95
2004-02-02 08:29:28 51°23.001 3°2.925 4.2 232 9.5 101490 95
2004-02-02 08:29:33 51°23.017 3°2.948 4.2 238 9.5 101490 95
2004-02-02 08:29:39 51°23.036 3°2.975 3.8 237 9.5 101490 95
2004-02-02 08:29:43 51°23.047 3°2.995 4.4 227 9.5 101490 95
2004-02-02 08:29:49 51°23.066 3°3.022 3.4 230 9.5 101490 95
2004-02-02 08:29:53 51°23.077 3°3.042 3.6 229 9.5 101490 95
2004-02-02 08:29:59 51°23.095 3°3.07 3.4 223 9.5 101490 95
2004-02-02 08:30:04 51°23.11 3°3.093 4.3 235 9.5 101490 95
2004-02-02 08:30:08 51°23.123 3°3.11 2.9 199 9.5 101490 95
2004-02-02 08:30:13 51°23.138 3°3.133 4 240 9.5 101490 95
2004-02-02 08:30:19 51°23.157 3°3.159 3.9 231 9.5 101500 95
2004-02-02 08:30:24 51°23.171 3°3.183 4.1 242 9.5 101500 95
2004-02-02 08:30:28 51°23.184 3°3.199 4.1 222 9.5 101490 95
2004-02-02 08:30:33 51°23.199 3°3.222 4.8 221 9.5 101490 95
2004-02-02 08:30:39 51°23.217 3°3.248 4.6 244 9.5 101490 95
2004-02-02 08:30:43 51°23.229 3°3.267 3.7 214 9.5 101490 95
2004-02-02 08:30:49 51°23.247 3°3.294 6.7 230 9.5 101490 95
2004-02-02 08:30:53 51°23.259 3°3.312 4.9 225 9.5 101490 95
2004-02-02 08:30:59 51°23.276 3°3.34 4.1 237 9.5 101490 95
2004-02-02 08:31:03 51°23.288 3°3.358 5.9 218 9.5 101490 95
2004-02-02 08:31:08 51°23.303 3°3.38 5.3 213 9.5 101490 95
2004-02-02 08:31:13 51°23.316 3°3.403 3.5 236 9.5 101490 95
2004-02-02 08:31:19 51°23.334 3°3.431 4 261 9.5 101490 95
2004-02-02 08:31:24 51°23.349 3°3.454 2.1 255 9.5 101490 95
2004-02-02 08:31:28 51°23.362 3°3.472 2.6 243 9.5 101490 95
2004-02-02 08:31:33 51°23.376 3°3.496 3.2 239 9.5 101490 95
2004-02-02 08:31:39 51°23.395 3°3.524 3.2 224 9.5 101490 95
2004-02-02 08:31:43 51°23.406 3°3.543 2.8 258 9.5 101490 95
2004-02-02 08:31:48 51°23.421 3°3.567 3.1 252 9.5 101490 95
2004-02-02 08:31:53 51°23.437 3°3.591 6.3 227 9.5 101490 95
2004-02-02 08:31:59 51°23.454 3°3.619 5 222 9.5 101490 95
2004-02-02 08:32:04 51°23.468 3°3.643 3 217 9.5 101490 95
2004-02-02 08:32:09 51°23.484 3°3.667 4.1 240 9.5 101500 95
2004-02-02 08:32:13 51°23.495 3°3.686 3.3 227 9.5 101500 95
2004-02-02 08:32:19 51°23.513 3°3.714 4.3 232 9.5 101500 95
2004-02-02 08:32:23 51°23.525 3°3.732 4.5 226 9.5 101500 95
2004-02-02 08:32:29 51°23.542 3°3.76 3.9 234 9.5 101490 95
2004-02-02 08:32:33 51°23.554 3°3.779 4.8 229 9.5 101490 95
2004-02-02 08:32:39 51°23.572 3°3.806 4.3 218 9.5 101490 95
2004-02-02 08:32:43 51°23.583 3°3.825 3.2 230 9.5 101490 95
2004-02-02 08:32:48 51°23.599 3°3.847 3.1 240 9.5 101500 95
2004-02-02 08:32:53 51°23.613 3°3.87 2.8 234 9.5 101500 95
2004-02-02 08:32:59 51°23.632 3°3.897 4.7 233 9.6 101490 95
2004-02-02 08:33:04 51°23.646 3°3.92 3.1 255 9.6 101490 95
2004-02-02 08:33:09 51°23.661 3°3.943 3.9 249 9.6 101490 95
2004-02-02 08:33:14 51°23.676 3°3.966 5.3 237 9.6 101490 95
2004-02-02 08:33:19 51°23.691 3°3.99 5.8 232 9.6 101490 95
2004-02-02 08:33:23 51°23.704 3°4.008 4.2 238 9.6 101490 95
2004-02-02 08:33:29 51°23.722 3°4.035 5.3 242 9.6 101500 95
2004-02-02 08:33:33 51°23.734 3°4.054 4.7 243 9.6 101500 95
2004-02-02 08:33:39 51°23.753 3°4.079 6.2 237 9.6 101490 95
2004-02-02 08:33:43 51°23.764 3°4.099 4.8 245 9.6 101490 95
2004-02-02 08:33:49 51°23.784 3°4.124 3 251 9.6 101490 95
2004-02-02 08:33:53 51°23.795 3°4.144 2.8 261 9.6 101490 95
2004-02-02 08:33:59 51°23.813 3°4.17 3.1 256 9.6 101490 95
2004-02-02 08:34:04 51°23.83 3°4.189 3.8 232 9.6 101490 95
2004-02-02 08:34:09 51°23.846 3°4.211 3.1 249 9.6 101490 95
2004-02-02 08:34:13 51°23.86 3°4.225 5 261 9.6 101490 95
2004-02-02 08:34:19 51°23.88 3°4.249 3.9 252 9.5 101500 95
2004-02-02 08:34:23 51°23.894 3°4.263 4.6 242 9.5 101500 95
2004-02-02 08:34:28 51°23.911 3°4.281 5.3 260 9.6 101490 95
2004-02-02 08:34:33 51°23.928 3°4.299 4.5 263 9.6 101490 95
2004-02-02 08:34:39 51°23.949 3°4.32 5.3 245 9.5 101490 95
2004-02-02 08:34:43 51°23.963 3°4.335 6.2 254 9.5 101490 95
2004-02-02 08:34:49 51°23.984 3°4.356 5.8 264 9.5 101490 95
2004-02-02 08:34:53 51°23.998 3°4.37 7.3 269 9.5 101490 95
2004-02-02 08:34:59 51°24.019 3°4.39 4.6 260 9.5 101480 95
2004-02-02 08:35:03 51°24.033 3°4.405 6.1 264 9.5 101480 95
2004-02-02 08:35:09 51°24.054 3°4.426 5 260 9.5 101490 95
2004-02-02 08:35:13 51°24.068 3°4.441 4.7 259 9.5 101490 95
2004-02-02 08:35:19 51°24.088 3°4.463 7.7 268 9.5 101490 95
2004-02-02 08:35:24 51°24.106 3°4.481 5 244 9.5 101490 95
2004-02-02 08:35:29 51°24.123 3°4.5 4.3 259 9.5 101480 95
2004-02-02 08:35:33 51°24.137 3°4.514 4.7 256 9.5 101480 95
2004-02-02 08:35:39 51°24.158 3°4.536 4.4 255 9.5 101490 95
2004-02-02 08:35:43 51°24.172 3°4.55 6.5 260 9.5 101490 95
2004-02-02 08:35:49 51°24.192 3°4.574 6.7 262 9.5 101490 95
2004-02-02 08:35:53 51°24.207 3°4.585 3.2 255 9.5 101490 95
2004-02-02 08:35:59 51°24.226 3°4.61 5.5 258 9.5 101490 95
2004-02-02 08:36:04 51°24.244 3°4.624 3.9 254 9.5 101490 95
2004-02-02 08:36:09 51°24.261 3°4.644 5.4 269 9.5 101490 95
2004-02-02 08:36:13 51°24.275 3°4.656 6.6 246 9.5 101490 95
2004-02-02 08:36:19 51°24.295 3°4.681 6.8 234 9.5 101490 95
2004-02-02 08:36:23 51°24.31 3°4.693 5.7 244 9.5 101490 95
2004-02-02 08:36:28 51°24.327 3°4.714 6 255 9.5 101480 95
2004-02-02 08:36:33 51°24.345 3°4.729 4.4 253 9.5 101480 95
2004-02-02 08:36:39 51°24.364 3°4.753 5.7 280 9.5 101480 95
2004-02-02 08:36:44 51°24.382 3°4.771 4.3 255 9.5 101480 95
2004-02-02 08:36:48 51°24.395 3°4.785 3.8 252 9.5 101480 95
2004-02-02 08:36:53 51°24.411 3°4.805 3.4 256 9.5 101480 95
2004-02-02 08:36:59 51°24.432 3°4.825 4.9 262 9.5 101480 95
2004-02-02 08:37:04 51°24.448 3°4.845 4.4 246 9.5 101480 95
2004-02-02 08:37:08 51°24.46 3°4.86 5 264 9.5 101480 95
2004-02-02 08:37:13 51°24.477 3°4.878 4.2 258 9.5 101480 95
2004-02-02 08:37:19 51°24.498 3°4.899 5.3 261 9.5 101480 95
2004-02-02 08:37:23 51°24.511 3°4.914 6.3 238 9.5 101480 95
2004-02-02 08:37:29 51°24.531 3°4.936 9.3 261 9.5 101490 95
2004-02-02 08:37:33 51°24.545 3°4.951 6.5 260 9.5 101490 95
2004-02-02 08:37:39 51°24.565 3°4.973 5.2 253 9.4 101490 95
2004-02-02 08:37:43 51°24.579 3°4.988 6.7 247 9.4 101490 95
2004-02-02 08:37:49 51°24.599 3°5.01 7.2 245 9.4 101480 95
2004-02-02 08:37:53 51°24.613 3°5.023 4.6 255 9.4 101480 95
2004-02-02 08:37:59 51°24.633 3°5.046 6.3 261 9.5 101480 95
2004-02-02 08:38:03 51°24.647 3°5.06 6.1 264 9.5 101480 95
2004-02-02 08:38:08 51°24.665 3°5.079 8.3 265 9.5 101480 95
2004-02-02 08:38:13 51°24.683 3°5.095 4.2 252 9.5 101480 95
2004-02-02 08:38:19 51°24.702 3°5.119 4.9 259 9.5 101470 95
2004-02-02 08:38:24 51°24.721 3°5.135 4.8 254 9.5 101470 95
2004-02-02 08:38:29 51°24.738 3°5.153 3.9 250 9.5 101470 95
2004-02-02 08:38:33 51°24.751 3°5.168 5.4 247 9.5 101470 95
2004-02-02 08:38:39 51°24.771 3°5.191 5 239 9.4 101480 95
2004-02-02 08:38:44 51°24.788 3°5.21 5.7 239 9.4 101480 95
2004-02-02 08:38:49 51°24.804 3°5.229 3.7 267 9.4 101480 95
2004-02-02 08:38:53 51°24.818 3°5.245 4.9 255 9.4 101480 95
2004-02-02 08:38:59 51°24.839 3°5.266 5.7 260 9.4 101480 95
2004-02-02 08:39:03 51°24.852 3°5.282 4.6 261 9.4 101480 95
2004-02-02 08:39:08 51°24.869 3°5.301 3.9 252 9.4 101480 95
2004-02-02 08:39:13 51°24.886 3°5.319 5.2 254 9.4 101480 95
2004-02-02 08:39:19 51°24.906 3°5.341 5.8 262 9.4 101470 95
2004-02-02 08:39:23 51°24.921 3°5.355 4.5 255 9.4 101470 95
2004-02-02 08:39:29 51°24.942 3°5.376 4.1 256 9.4 101470 95
2004-02-02 08:39:33 51°24.955 3°5.391 4.5 257 9.4 101470 95
2004-02-02 08:39:39 51°24.976 3°5.411 4.2 268 9.4 101480 95
2004-02-02 08:39:43 51°24.99 3°5.426 3.3 251 9.4 101480 95
2004-02-02 08:39:49 51°25.011 3°5.447 4.6 248 9.4 101480 95
2004-02-02 08:39:53 51°25.024 3°5.463 5.2 260 9.4 101480 95
2004-02-02 08:39:59 51°25.044 3°5.484 4.9 260 9.4 101480 95
2004-02-02 08:40:03 51°25.058 3°5.5 6.4 262 9.4 101480 95
2004-02-02 08:40:08 51°25.076 3°5.515 4.4 248 9.4 101480 95
2004-02-02 08:40:13 51°25.093 3°5.535 5.6 253 9.4 101480 95
2004-02-02 08:40:19 51°25.114 3°5.556 6.4 262 9.3 101480 95
2004-02-02 08:40:24 51°25.131 3°5.574 4.6 253 9.3 101480 95
2004-02-02 08:40:28 51°25.145 3°5.588 6.1 259 9.3 101480 95
2004-02-02 08:40:33 51°25.163 3°5.606 6.4 252 9.3 101480 95
2004-02-02 08:40:39 51°25.184 3°5.626 7 245 9.4 101470 95
2004-02-02 08:40:44 51°25.201 3°5.645 5.8 242 9.4 101470 95
2004-02-02 08:40:48 51°25.216 3°5.658 6.8 246 9.4 101480 95
2004-02-02 08:40:53 51°25.233 3°5.676 7.3 238 9.4 101480 95
2004-02-02 08:40:59 51°25.253 3°5.698 4.6 257 9.4 101470 95
2004-02-02 08:41:04 51°25.272 3°5.716 5.4 266 9.4 101470 95
2004-02-02 08:41:09 51°25.29 3°5.731 4.4 254 9.4 101470 95
2004-02-02 08:41:13 51°25.304 3°5.745 5.1 252 9.4 101470 95
2004-02-02 08:41:19 51°25.325 3°5.766 6.1 259 9.4 101480 95
2004-02-02 08:41:23 51°25.341 3°5.778 7.7 261 9.4 101480 95
2004-02-02 08:41:29 51°25.362 3°5.798 5.2 251 9.4 101460 95
2004-02-02 08:41:33 51°25.376 3°5.811 4.6 249 9.4 101460 95
2004-02-02 08:41:39 51°25.398 3°5.832 6.2 257 9.4 101470 95
2004-02-02 08:41:44 51°25.415 3°5.85 5.2 250 9.4 101470 95
2004-02-02 08:41:49 51°25.433 3°5.868 7.2 246 9.4 101470 95
2004-02-02 08:41:53 51°25.447 3°5.883 5.7 253 9.4 101470 95
2004-02-02 08:41:59 51°25.468 3°5.904 5.1 256 9.4 101470 95
2004-02-02 08:42:03 51°25.482 3°5.919 6.5 265 9.4 101470 95
2004-02-02 08:42:09 51°25.503 3°5.941 5.1 251 9.4 101470 95
2004-02-02 08:42:14 51°25.521 3°5.961 5.4 219 9.4 101470 95
2004-02-02 08:42:19 51°25.535 3°5.984 6.7 232 9.4 101470 95
2004-02-02 08:42:23 51°25.547 3°6.003 4.3 226 9.4 101470 95
2004-02-02 08:42:29 51°25.565 3°6.033 6 226 9.4 101480 95
2004-02-02 08:42:33 51°25.576 3°6.052 4.7 223 9.4 101480 95
2004-02-02 08:42:39 51°25.591 3°6.083 3.9 241 9.4 101480 95
2004-02-02 08:42:44 51°25.604 3°6.109 2.4 235 9.4 101480 95
2004-02-02 08:42:49 51°25.617 3°6.137 2.3 200 9.5 101480 95
2004-02-02 08:42:53 51°25.628 3°6.159 4.3 225 9.5 101480 95
2004-02-02 08:42:59 51°25.644 3°6.192 4.7 217 9.5 101480 95
2004-02-02 08:43:03 51°25.655 3°6.213 6.1 225 9.5 101480 95
2004-02-02 08:43:09 51°25.669 3°6.244 5.1 221 9.5 101480 95
2004-02-02 08:43:13 51°25.679 3°6.266 4.4 218 9.5 101480 95
2004-02-02 08:43:19 51°25.694 3°6.298 4 212 9.4 101480 95
2004-02-02 08:43:24 51°25.706 3°6.326 4.6 225 9.4 101480 95
2004-02-02 08:43:28 51°25.717 3°6.348 4 236 9.4 101480 95
2004-02-02 08:43:33 51°25.731 3°6.375 4.1 227 9.4 101480 95
2004-02-02 08:43:39 51°25.746 3°6.406 4.2 203 9.4 101480 95
2004-02-02 08:43:43 51°25.757 3°6.427 4.6 223 9.4 101480 95
2004-02-02 08:43:48 51°25.769 3°6.453 4.5 215 9.4 101480 95
2004-02-02 08:43:53 51°25.782 3°6.479 3 219 9.4 101480 95
2004-02-02 08:43:59 51°25.797 3°6.511 4.6 226 9.4 101480 95
2004-02-02 08:44:04 51°25.81 3°6.538 4.5 240 9.4 101480 95
2004-02-02 08:44:09 51°25.823 3°6.564 4.7 227 9.4 101480 95
2004-02-02 08:44:13 51°25.834 3°6.584 5.4 219 9.4 101480 95
2004-02-02 08:44:19 51°25.848 3°6.615 3.7 217 9.4 101480 95
2004-02-02 08:44:23 51°25.858 3°6.637 5.7 205 9.4 101480 95
2004-02-02 08:44:29 51°25.873 3°6.67 5.6 204 9.4 101480 95
2004-02-02 08:44:33 51°25.883 3°6.692 5.8 218 9.4 101480 95
2004-02-02 08:44:39 51°25.897 3°6.724 5.3 226 9.4 101480 95
2004-02-02 08:44:43 51°25.907 3°6.744 3.9 209 9.4 101480 95
2004-02-02 08:44:49 51°25.922 3°6.776 4.8 224 9.4 101480 95
2004-02-02 08:44:53 51°25.933 3°6.796 3.3 206 9.4 101480 95
2004-02-02 08:44:59 51°25.947 3°6.829 5.1 211 9.4 101480 95
2004-02-02 08:45:04 51°25.961 3°6.855 5.4 226 9.4 101480 95
2004-02-02 08:45:08 51°25.972 3°6.877 5 210 9.4 101480 95
2004-02-02 08:45:13 51°25.984 3°6.905 4.1 219 9.4 101480 95
2004-02-02 08:45:19 51°25.998 3°6.938 4.4 198 9.4 101480 95
2004-02-02 08:45:23 51°26.005 3°6.961 4.5 202 9.4 101480 95
2004-02-02 08:45:28 51°26.016 3°6.989 4.2 217 9.4 101480 95
2004-02-02 08:45:33 51°26.026 3°7.017 4.9 171 9.4 101480 95
2004-02-02 08:45:39 51°26.039 3°7.052 4.3 178 9.4 101490 95
2004-02-02 08:45:44 51°26.051 3°7.08 5.9 220 9.4 101490 95
2004-02-02 08:45:48 51°26.06 3°7.103 4.7 211 9.4 101480 95
2004-02-02 08:45:53 51°26.071 3°7.13 2.9 196 9.4 101480 95
2004-02-02 08:45:59 51°26.084 3°7.163 3.2 194 9.5 101480 95
2004-02-02 08:46:03 51°26.092 3°7.186 5.4 205 9.5 101480 95
2004-02-02 08:46:09 51°26.105 3°7.22 3.4 204 9.5 101490 95
2004-02-02 08:46:13 51°26.114 3°7.242 3.3 213 9.5 101490 95
2004-02-02 08:46:19 51°26.128 3°7.276 5.5 217 9.5 101490 95
2004-02-02 08:46:23 51°26.137 3°7.299 4.5 195 9.5 101490 95
2004-02-02 08:46:28 51°26.149 3°7.327 4.9 217 9.6 101490 95
2004-02-02 08:46:33 51°26.16 3°7.355 4.6 201 9.6 101490 95
2004-02-02 08:46:39 51°26.173 3°7.387 3.8 181 9.6 101490 95
2004-02-02 08:46:44 51°26.183 3°7.416 3.8 195 9.6 101490 95
2004-02-02 08:46:48 51°26.191 3°7.439 4.2 181 9.6 101490 95